weather.gov     
National Weather Service

Terminal Aerodrome Forecast
NWS Homepage
This page is being discontinued on March 12, 2014.
The same data is available at this site. Please update your bookmarks.
Thank you, and we apologize for the inconvenience.
Please send an email to SR-SRH.Webmaster@noaa.gov with any concerns.


Current Version
Previous Version:    01  02  03  04  05  06  07  08  09  10  11  12  13  14  15  16  17  18  19  20  21  22  23  
[Printable]
407
FTUS42 TJSJ 301700
TAFNCM
TAF
TNCM 301727Z 3018/3118 18008KT P6SM VCSH SCT020 BKN040
      TEMPO 3018/3020 18010G18KT 5SM SHRA SCT018 BKN030
     FM302300 VRB05KT P6SM VCSH SCT020
     FM311400 16010KT P6SM SCT022=


U.S. Dept. of Commerce
NOAA National Weather Service
1325 East West Highway
Silver Spring, MD 20910
E-mail: w-nws.webmaster@noaa.gov
Page last modified: May 16, 2007
NATIONAL WEATHER SERVICE: for Safety, for Work, for Fun - FOR LIFE